Theta_e
316 324 325 324 325 324 322 325 326 325 326 325 324 325 323 326 328 328 329 331 333 332 333 333 332 331 332 331 331 330 327 325 325 325 324 323 318 317 318 320 324 323 326 326
319 322 322 322 324 324 323 323 325 324 325 325 323 324 323 325 326 328 329 330 331 331 331 332 333 332 333 332 332 331 327 324 324 323 321 318 317 318 321 322 324 325 327 326
316 321 322 323 324 324 325 325 325 327 322 324 321 324 324 323 327 328 328 329 329 328 329 330 332 332 333 332 332 331 327 325 325 323 322 321 318 319 320 321 325 327 327 326
318 319 323 323 324 323 327 324 324 324 326 331 322 329 325 324 322 324 328 329 329 327 327 329 330 332 332 331 330 329 330 328 327 326 324 320 318 318 320 322 327 328 328 325
316 320 323 324 323 322 324 323 326 326 324 327 325 325 326 324 325 322 323 328 329 328 326 328 329 330 329 330 328 327 331 332 330 329 327 324 323 323 324 326 328 329 327 325
313 313 320 322 321 321 317 319 319 317 323 329 329 328 328 326 325 325 322 325 329 329 327 327 328 329 329 329 328 329 330 332 332 331 329 326 327 327 328 329 329 330 328 326
310 310 313 315 317 315 319 322 321 323 323 328 328 327 329 325 324 325 322 323 326 329 329 328 329 329 329 330 329 330 329 331 333 332 331 331 329 330 330 331 331 330 327 326
317 316 314 314 315 316 320 323 323 328 327 322 320 330 329 326 324 325 325 323 324 325 328 329 329 329 328 328 330 329 331 331 331 332 334 332 332 330 330 331 331 330 327 323
317 314 308 313 314 316 316 322 317 318 312 321 321 322 317 316 315 319 318 321 322 325 326 328 329 329 328 328 328 327 329 330 330 331 333 332 331 329 330 330 330 327 326 320
312 316 307 312 313 313 316 314 318 316 325 327 323 322 321 317 318 315 313 314 317 320 324 325 327 328 329 328 328 328 327 328 329 329 330 330 329 327 329 329 329 328 324 319
313 316 311 310 313 314 316 316 317 319 319 326 323 318 307 313 314 315 315 314 313 313 317 321 321 322 324 325 325 324 325 325 326 327 327 326 325 325 328 327 327 325 322 317
312 313 315 313 309 309 315 317 318 322 321 314 315 320 306 307 307 308 311 313 311 312 313 313 314 315 316 317 317 318 319 319 320 319 319 319 321 325 327 327 326 322 318 317
312 313 314 314 313 310 314 315 317 317 316 319 321 316 306 308 308 308 308 311 311 310 311 311 311 312 312 313 313 313 314 315 316 316 318 321 325 326 326 325 322 318 317 316
309 312 316 316 314 314 315 315 316 318 319 319 318 318 310 308 308 308 307 308 310 310 310 310 311 311 311 311 311 312 314 315 317 321 325 325 325 325 324 320 318 316 315 315
307 312 310 310 310 312 314 315 316 318 317 320 320 319 307 306 306 307 307 308 309 309 309 309 310 311 311 312 313 315 316 319 321 323 323 323 321 319 317 317 316 314 313 313
306 311 310 310 310 311 312 312 315 315 316 317 317 317 310 309 308 307 308 307 307 308 309 309 309 310 311 311 313 315 317 319 320 320 320 320 319 318 317 315 313 312 312 313
309 309 312 313 309 310 311 310 312 315 315 315 317 316 315 315 315 310 308 308 307 307 308 308 309 309 309 309 311 313 316 317 318 318 318 317 316 315 313 312 311 311 312 313
309 309 310 310 308 316 309 304 305 312 314 314 315 315 316 316 315 314 311 309 309 308 308 308 308 308 309 309 308 308 310 312 314 314 314 313 312 311 311 310 310 311 312 312
308 310 309 313 311 312 307 304 306 309 307 301 303 307 308 307 308 310 310 309 306 307 307 308 308 307 307 307 307 307 307 308 309 310 310 310 310 310 309 309 309 310 311 311
307 308 311 308 312 311 306 303 303 304 307 300 300 301 301 304 307 307 307 307 306 305 305 307 307 307 307 307 308 307 307 308 309 309 309 309 309 308 308 308 309 310 310 310
308 309 310 310 310 308 304 302 303 307 308 300 300 301 301 302 303 302 303 304 304 304 305 305 306 306 306 307 307 308 308 309 309 309 309 309 308 308 308 308 308 309 309 309
304 308 309 308 309 307 303 303 307 306 303 303 303 304 303 302 301 302 304 304 304 305 305 304 305 306 306 306 306 307 308 309 309 309 308 308 308 308 308 307 307 307 307 307
301 305 305 306 307 304 303 304 305 305 305 305 304 304 303 303 303 302 303 304 304 304 305 304 305 306 306 305 305 306 307 308 308 308 308 308 308 308 307 306 305 305 304 304
303 303 300 301 301 303 304 305 305 305 305 305 304 304 303 303 303 303 302 303 304 305 305 305 305 306 306 304 304 305 306 306 307 308 308 307 308 308 307 306 305 304 303 303
300 300 296 301 300 303 304 305 305 305 305 305 304 304 304 303 303 303 303 302 303 305 305 305 305 305 304 304 304 305 306 306 307 307 307 307 307 307 306 305 305 304 303 302
299 296 298 298 302 303 305 302 302 303 303 303 304 304 304 302 302 303 303 301 300 304 304 303 303 304 303 303 303 304 304 305 306 306 307 307 306 305 304 304 303 303 302 301
Wind_Speed
29 14 21 34 30 23 13 15 18 15 15 11 12 14 16 22 22 22 27 29 32 33 33 32 32 32 29 30 29 30 30 29 29 28 27 26 23 22 18 15 12 10 8 6
14 23 26 16 17 24 18 16 23 9 16 5 11 17 17 11 15 24 27 30 31 29 32 33 33 33 34 33 32 31 31 31 30 30 29 26 22 21 20 17 15 11 9 8
16 13 13 23 22 16 13 23 17 11 4 12 6 16 17 12 18 25 26 32 32 35 38 38 37 37 37 37 37 34 32 30 31 30 29 27 27 25 23 21 19 15 13 11
15 14 25 22 19 16 12 11 17 13 17 12 10 6 18 16 10 11 23 25 34 36 36 39 40 40 41 40 38 35 33 31 32 32 31 31 29 26 23 22 19 17 14 13
3 4 27 24 26 21 7 7 5 11 13 8 6 2 9 18 20 12 16 27 27 39 39 41 42 43 41 41 40 38 35 33 33 34 33 32 29 26 24 22 22 18 16 13
3 5 5 6 11 16 9 10 6 4 3 7 14 13 12 17 24 18 21 30 33 30 40 41 41 41 41 40 40 39 39 37 36 35 34 33 31 31 29 26 24 18 17 17
6 6 3 5 13 7 4 11 2 3 3 3 15 10 13 15 10 16 19 31 37 38 33 41 42 41 40 41 42 40 40 40 39 37 36 36 33 34 30 27 25 21 16 20
3 1 5 3 6 8 11 8 4 5 5 4 5 12 12 23 17 14 26 37 38 39 41 39 42 42 42 44 43 42 42 40 40 37 37 36 36 34 32 28 27 21 20 18
3 2 5 5 2 8 3 4 2 1 1 4 5 5 6 5 6 8 9 21 35 38 42 43 42 43 43 42 45 44 44 41 40 39 37 37 38 35 31 27 27 21 21 20
2 4 3 3 5 5 3 8 4 1 4 4 6 3 5 7 13 8 9 12 17 24 38 40 40 39 40 41 43 41 39 39 40 39 37 37 36 32 26 28 28 26 22 20
1 1 4 2 1 5 4 5 2 1 1 1 3 4 4 5 3 8 8 20 20 16 21 33 33 33 37 38 38 37 36 35 38 38 36 34 32 27 27 30 29 23 22 21
2 3 3 2 2 4 2 4 5 3 4 1 2 3 5 5 5 5 7 12 13 15 18 23 27 30 31 31 31 31 32 35 35 35 33 30 26 27 30 29 27 25 22 21
4 2 3 3 0 3 3 4 6 7 2 4 3 0 3 4 4 4 4 12 16 15 15 17 20 26 28 29 28 30 30 31 32 32 27 25 27 29 29 27 26 23 23 22
6 2 0 2 2 3 4 6 6 5 3 4 6 2 3 5 5 4 4 5 11 16 17 17 17 20 23 23 25 28 30 31 29 25 25 27 29 27 27 27 25 24 23 22
2 2 3 3 3 4 1 9 11 11 12 2 1 4 6 5 6 6 5 7 8 11 13 15 16 18 20 18 22 25 27 26 26 27 28 26 25 26 27 26 25 25 23 21
1 1 1 1 4 3 2 3 9 12 12 12 16 12 4 3 6 7 5 4 5 7 9 12 13 14 16 17 20 23 24 25 27 28 26 26 27 27 26 25 25 23 23 22
2 1 1 3 2 2 4 5 8 8 7 13 14 12 7 8 9 3 8 4 3 1 2 6 10 13 15 16 18 22 26 26 27 26 27 27 26 26 25 24 24 23 23 23
2 1 2 1 1 2 1 1 2 9 3 7 13 5 6 7 14 12 11 3 5 7 8 6 7 11 14 17 19 20 24 25 25 26 27 26 26 25 25 24 23 23 24 24
3 1 1 1 1 3 3 4 3 2 3 5 5 6 7 11 13 16 14 12 4 7 8 10 11 9 11 16 18 20 24 24 25 27 28 26 24 26 25 24 23 23 24 24
3 3 2 0 2 0 1 3 4 3 1 4 5 5 5 8 2 1 9 14 17 15 12 15 14 14 13 13 16 22 25 25 28 28 26 23 25 23 21 21 22 23 23 23
1 2 1 2 1 3 1 4 3 2 2 1 1 3 6 3 4 17 18 17 18 21 21 17 16 19 17 16 18 22 24 25 25 24 22 23 23 20 20 20 21 21 22 23
0 1 1 1 1 4 2 0 1 2 2 2 2 4 7 9 14 16 17 16 15 17 18 18 18 17 23 24 23 24 26 26 25 24 23 24 22 21 20 21 21 22 22 23
2 2 2 4 3 3 3 4 2 7 3 1 4 7 10 11 15 19 20 19 16 16 16 15 16 18 19 24 26 26 27 28 25 24 25 23 21 21 21 22 22 22 21 22
2 3 1 4 3 4 6 7 8 9 9 9 10 12 13 16 17 19 18 20 20 18 16 15 16 16 16 20 21 22 20 22 23 24 24 23 22 23 22 21 21 21 20 20
3 2 4 6 9 15 16 12 9 10 13 14 12 11 11 14 17 20 21 17 17 20 17 13 12 12 12 16 20 22 20 20 21 22 23 23 22 21 20 19 18 18 17 18
10 6 4 5 9 7 2 4 11 10 11 12 13 12 11 13 17 20 22 20 13 13 14 11 9 8 8 10 15 18 19 20 19 20 22 21 20 18 17 16 16 17 17 16
Wind_Direction
209 205 196 196 198 192 170 194 202 214 216 223 225 231 251 176 185 193 185 181 184 193 192 192 193 192 191 190 195 202 203 200 199 198 199 207 209 211 214 221 226 230 238 257
206 214 207 178 176 200 195 192 208 214 219 245 231 226 231 184 199 207 188 187 185 185 190 191 193 193 192 192 197 204 208 204 205 208 211 217 217 216 221 225 228 230 241 254
232 216 184 185 179 195 192 203 197 194 166 223 310 249 221 214 189 210 218 191 189 185 188 189 191 194 193 197 199 206 209 207 209 212 213 215 219 221 224 225 227 227 238 248
214 230 185 180 178 181 195 207 198 158 175 204 191 240 217 205 193 198 217 210 187 187 191 189 193 195 200 202 203 207 209 208 212 215 216 222 225 225 227 229 228 230 239 246
194 209 166 175 184 175 196 152 210 181 190 170 204 255 209 200 215 197 205 221 205 191 191 192 197 204 205 202 206 206 207 210 215 218 222 226 226 227 230 231 230 228 233 242
19 348 154 181 159 163 123 102 67 52 152 213 188 214 227 205 201 196 198 205 213 195 192 196 205 205 206 208 208 208 207 210 216 221 224 228 226 228 230 231 229 234 247 244
18 345 4 127 99 109 149 138 116 166 185 223 182 197 227 204 211 197 195 197 205 210 197 196 200 208 209 209 209 210 211 211 215 220 221 229 230 233 235 235 238 234 234 239
119 264 359 343 117 163 152 148 170 160 182 153 147 226 217 225 253 263 209 199 199 203 208 203 203 209 211 210 211 211 213 213 215 216 215 222 232 235 234 234 235 235 237 231
93 32 294 35 117 143 169 158 59 277 222 105 198 260 314 201 254 238 234 181 198 198 202 204 207 208 212 212 215 216 214 214 217 216 215 219 230 236 236 235 227 227 231 228
149 114 10 20 65 27 104 138 113 281 160 199 195 221 221 189 216 201 206 204 191 184 200 204 205 203 207 213 218 217 217 216 218 219 220 227 232 234 235 226 223 222 227 230
143 110 8 15 191 164 135 137 162 182 201 242 117 252 9 263 237 210 214 205 209 197 174 182 185 196 208 211 218 220 218 214 216 220 226 227 228 227 218 221 220 226 229 228
80 81 101 40 323 312 355 165 160 168 175 233 143 290 343 23 49 66 45 170 185 198 189 198 200 205 212 215 215 213 211 211 216 222 225 222 221 212 211 218 221 224 226 227
154 151 116 121 150 4 221 190 195 120 75 204 119 230 283 92 59 40 111 155 163 180 188 201 209 212 212 213 212 209 209 212 216 219 215 209 205 208 210 216 223 226 228 227
64 112 264 111 1 114 190 177 183 176 177 165 191 3 84 60 68 51 77 148 161 169 180 187 196 206 206 206 206 206 208 210 210 206 201 204 204 207 214 221 226 228 229 227
63 115 131 87 350 347 229 178 180 207 220 223 124 224 52 38 30 30 70 125 143 169 182 191 194 202 204 196 201 204 205 203 200 200 203 204 208 213 219 223 227 228 227 226
294 63 98 80 28 26 331 319 217 221 236 242 272 276 123 13 15 348 32 83 140 187 200 202 206 206 212 211 208 206 206 204 205 207 208 210 214 218 223 227 228 228 226 222
36 124 123 82 6 280 294 219 214 206 234 231 236 244 280 313 308 14 55 17 357 104 271 249 241 234 224 223 217 211 211 212 211 212 214 217 220 223 224 225 227 227 225 221
48 24 14 120 283 194 215 87 310 230 232 253 261 279 298 293 294 298 328 338 299 303 309 301 267 248 244 236 229 222 222 220 218 217 218 219 220 223 224 225 225 223 221 221
24 338 73 302 225 292 48 8 16 48 75 15 354 351 333 327 315 298 312 326 322 271 269 280 286 272 252 236 231 226 224 219 218 219 220 218 219 223 224 225 223 221 220 222
71 16 343 358 23 326 309 326 304 257 87 10 14 13 346 335 233 272 315 306 307 308 296 264 250 254 251 243 236 229 226 221 221 220 219 219 223 225 228 226 223 222 223 225
72 111 277 223 258 283 199 274 301 88 229 25 43 343 338 347 320 309 314 306 299 295 290 285 271 246 239 246 241 232 230 230 230 228 222 221 223 223 224 223 224 225 226 227
310 298 227 58 271 291 213 140 262 203 204 210 279 335 321 324 328 333 329 325 315 308 301 279 274 265 244 238 237 232 229 229 228 226 221 219 219 218 219 222 225 227 229 232
306 189 227 181 226 229 223 247 244 181 203 249 332 344 333 336 342 340 336 333 325 315 308 288 278 272 256 243 239 237 233 231 227 219 218 216 215 218 219 222 226 231 233 237
241 18 243 26 309 260 282 260 260 262 274 302 316 325 326 325 334 337 338 337 328 322 316 295 283 273 256 238 234 234 232 231 227 219 216 213 214 218 221 224 229 233 236 240
221 121 216 256 278 281 276 275 300 294 281 286 298 313 330 328 328 326 329 333 336 327 321 309 292 279 263 239 227 221 222 218 217 213 210 211 215 219 222 225 233 239 239 239
183 200 172 228 241 230 198 16 339 340 352 338 307 286 301 327 329 326 325 321 332 333 323 316 305 291 273 245 228 220 216 208 206 208 205 208 212 214 219 222 229 232 229 228